Regional Weather Roundup
Issued by NWS Huntsville, AL

Home | Current Version | Previous Version | Text Only | Print | Product List | Glossary On
Versions: 1 2 3 4 5 6 7 8 9 10 11 12 13 14 15 16 17 18 19 20 21 22 23 24 25 26 27
000
ASUS44 KHUN 080410
RWRHUN

WEATHER ROUNDUP FOR THE TENNESSEE VALLEY
NATIONAL WEATHER SERVICE HUNTSVILLE AL
1000 PM CST WED DEC 07 2016

ALZ001>004-080500-
NORTHWEST ALABAMA

CITY           SKY/WX    TMP DP  RH WIND       PRES   REMARKS
COURTLAND HCN    N/A     41 N/A N/A W5          N/A
RUSSELLVILLE     N/A     41 N/A N/A MISG        N/A
SHOALS AIRPORT CLOUDY    43  35  73 NW5       30.21S
SHOALS TVA RES   N/A     41 N/A N/A MISG        N/A
$$

ALZ005>007-016-080500-
NORTH CENTRAL ALABAMA

CITY           SKY/WX    TMP DP  RH WIND       PRES   REMARKS
CULLMAN AG STN   N/A     41 N/A N/A CALM        N/A
DECATUR AP     CLOUDY    41  37  86 NW5       30.20R
HUNTSVILLE AP  CLOUDY    42  36  79 NW3       30.18R
MERIDIANVILLE  MOCLDY    39  34  81 CALM      30.18R
REDSTONE ARSN  CLOUDY    40  36  84 CALM      30.17R
VINEMONT AP    FAIR      39  36  89 CALM      30.19F
$$

ALZ008>010-080500-
NORTHEAST ALABAMA

CITY           SKY/WX    TMP DP  RH WIND       PRES   REMARKS
ALBERTVILLE    CLOUDY    41  39  93 NW5       30.16R
FORT PAYNE     CLOUDY    41  32  70 CALM      30.14F
SCOTTSBORO AP  CLOUDY    41  36  81 NW3       30.17R
SCOTTSBORO HCN   N/A     43 N/A N/A MISG        N/A
VALLEY HEAD      N/A     41 N/A N/A MISG        N/A
$$

TNZ076-096-097-080500-
SOUTHEASTERN MIDDLE TENNESSEE

CITY           SKY/WX    TMP DP  RH WIND       PRES   REMARKS
TULLAHOMA      PTCLDY    32  30  93 NW3       30.15F
WINCHESTER     MOCLDY    36  34  93 CALM      30.15F
$$

...SURROUNDING SITES...

CITY           SKY/WX    TMP DP  RH WIND       PRES   REMARKS
ATLANTA        PTCLDY    46  41  82 NW10      30.11S
ANNISTON       PTCLDY    46  37  71 NW3       30.16S
BIRMINGHAM     CLOUDY    45  38  76 N7        30.21R
CHATTANOOGA    CLOUDY    44  36  73 N5        30.14F
CORINTH        CLOUDY    41  34  75 NW5       30.22R
DALTON         CLOUDY    43  39  87 NW5       30.14S
GADSDEN        CLOUDY    44  38  79 W6        30.19R
GOLDEN TRNGL   CLOUDY    43  37  81 N6        30.17F
HALEYVILLE     CLOUDY    40  36  86 CALM      30.21R
JACKSON TN     CLOUDY    41  29  62 N7        30.25R
MEMPHIS        CLOUDY    42  31  64 N10       30.26R
NASHVILLE      CLOUDY    40  25  55 N9        30.21S WCI  34
OXFORD MS      CLOUDY    39  34  81 N5        30.27R
ROME           CLOUDY    44  36  73 VRB5      30.14S
SAVANNAH       CLOUDY    39  37  93 CALM      30.21S
TUPELO         CLOUDY    44  36  73 NW5       30.23R
TUSCALOOSA     CLOUDY    47  40  76 N5        30.21R
$$

...GULF COAST WEATHER...

CITY           SKY/WX    TMP DP  RH WIND       PRES   REMARKS
GULFPORT       CLOUDY    60  54  80 NE6       30.15S
PASCAGOULA     CLOUDY    58  52  80 N6        30.16R
MOBILE         CLOUDY    57  50  77 N5        30.16S
GULF SHORES    CLOUDY    55  53  92 CALM      30.16R
PENSACOLA      MOCLDY    54  50  86 N3        30.15S
DESTIN         CLEAR     58  51  78 N6        30.15S
PANAMA CITY    CLEAR     55  51  86 NE6       30.15S
APPALACHICOLA  CLEAR     57  55  93 N8        30.14R
$$





USA.gov is the U.S. government's official web portal to all federal, state and local government web resources and services.